Home > Weather > Anchorage > Past weeks

Flag for USA Past Weather in Anchorage, Alaska, USA — Yesterday and Last 2 Weeks

Now
70 °F

Sunny.


Feels Like: 77 °F
Forecast: 53 / 66 °F
Wind: 5 mph from West

Location: Lake Hood Seaplane

Current Time: Aug 29, 2016 at 3:44:22 PM

Latest Report: Aug 29, 2016 at 2:53 PM


Visibility: 10 mi

Pressure: 29.95 "Hg

Humidity: 41%

Dew Point: 45 °F

Location of AnchorageLocation

Past Weather in Anchorage — Graph

°F

Anchorage Temperature Yesterday

Maximum temperature yesterday: 75 °F (at 5:53 PM)
Minimum temperature yesterday: 52 °F (at 6:53 AM)
Average temperature yesterday: 63 °F

High & Low Weather Summary for the Past Weeks

 TemperatureHumidityPressure
High75 °F (Aug 28, 5:53 PM)97% (Aug 25, 8:02 AM)30.29 "Hg (Aug 25, 8:02 AM)
Low52 °F (Aug 28, 6:53 AM)36% (Aug 28, 5:53 PM)29.53 "Hg (Aug 14, 5:53 PM)
Average59 °F75%30.03 "Hg
* Reported Aug 14 1:53 PM — Aug 29 1:53 PM, Anchorage, Weather by CustomWeather, © 2016

Note: Actual official high and low records may vary slightly from our data, if they occured in-between our weather recording intervals... More about our weather records

Advertising

Anchorage Weather History for the Previous 24 Hours

Scroll right to see more
 ConditionsComfort  
Time TempWeatherWind HumidityBarometerVisibility
1:53 PM
Mon, Aug 29
69 °FSunny.6 mph41%29.95 "Hg9 mi
12:53 PM67 °FSunny.5 mph42%29.98 "Hg10 mi
11:53 AM64 °FSunny.N/A47%29.98 "Hg10 mi
10:53 AM61 °FSunny.No wind48%29.99 "Hg10 mi
9:53 AM58 °FSunny.No wind56%30.00 "Hg10 mi
8:53 AM55 °FSunny.3 mph64%30.01 "Hg10 mi
7:53 AM54 °FSunny.5 mph64%30.02 "Hg10 mi
6:53 AM54 °FClear.3 mph64%30.01 "Hg10 mi
5:53 AM56 °FClear.10 mph62%30.00 "Hg10 mi
4:53 AM57 °FClear.13 mph58%30.01 "Hg10 mi
3:53 AM58 °FClear.12 mph58%30.01 "Hg10 mi
2:53 AM60 °FClear.13 mph53%30.00 "Hg10 mi
1:53 AM60 °FClear.10 mph58%29.99 "Hg10 mi
12:53 AM59 °FClear.3 mph64%29.99 "Hg10 mi
11:53 PM
Sun, Aug 28
60 °FClear.3 mph67%29.98 "Hg10 mi
10:53 PM63 °FClear.9 mph54%29.97 "Hg10 mi
9:53 PM65 °FSunny.8 mph51%29.96 "Hg10 mi
8:53 PM66 °FSunny.7 mph50%29.95 "Hg10 mi
7:53 PM70 °FSunny.8 mph51%29.95 "Hg10 mi
6:53 PM73 °FSunny.5 mph43%29.95 "Hg10 mi
5:53 PM75 °FSunny.6 mph36%29.94 "Hg10 mi
4:53 PM71 °FSunny.7 mph47%29.95 "Hg10 mi
3:53 PM70 °FSunny.6 mph49%29.96 "Hg10 mi
Weather by CustomWeather, © 2016

See weather overviewHow to use our weather pages